TimeEST,TemperatureF,Dew PointF,Humidity,Sea Level PressureIn,VisibilityMPH,Wind Direction,Wind SpeedMPH,Gust SpeedMPH,PrecipitationIn,Events,Conditions,WindDirDegrees,DateUTC
12:54 AM,30.0,3.9,33,29.98,10.0,West,9.2,-,N/A,,Clear,280,2013-01-22 05:54:00
1:54 AM,28.9,5.0,36,30.00,10.0,WNW,9.2,16.1,N/A,,Clear,290,2013-01-22 06:54:00
2:54 AM,27.0,3.9,37,30.03,10.0,WNW,8.1,17.3,N/A,,Clear,290,2013-01-22 07:54:00
3:54 AM,25.0,5.0,43,30.05,10.0,WNW,6.9,-,N/A,,Clear,300,2013-01-22 08:54:00
4:54 AM,23.0,1.9,40,30.08,10.0,WNW,4.6,-,N/A,,Clear,290,2013-01-22 09:54:00
5:54 AM,21.9,-0.0,38,30.11,10.0,Variable,3.5,-,N/A,,Clear,0,2013-01-22 10:54:00
6:54 AM,19.9,-0.0,42,30.15,10.0,Variable,4.6,-,N/A,,Clear,0,2013-01-22 11:54:00
7:54 AM,19.9,-2.0,38,30.19,10.0,Calm,Calm,-,N/A,,Clear,0,2013-01-22 12:54:00
8:54 AM,21.9,-2.9,34,30.21,10.0,WNW,8.1,17.3,N/A,,Clear,300,2013-01-22 13:54:00
9:54 AM,21.9,-4.0,32,30.24,10.0,West,9.2,16.1,N/A,,Clear,280,2013-01-22 14:54:00
10:54 AM,24.1,-2.0,32,30.24,10.0,Variable,6.9,-,N/A,,Clear,0,2013-01-22 15:54:00
11:54 AM,25.0,-2.0,31,30.23,10.0,WSW,10.4,19.6,N/A,,Clear,240,2013-01-22 16:54:00
12:54 PM,26.1,-2.9,28,30.21,10.0,West,8.1,-,N/A,,Clear,260,2013-01-22 17:54:00
1:54 PM,26.1,-2.9,28,30.20,10.0,NW,9.2,17.3,N/A,,Clear,310,2013-01-22 18:54:00
2:54 PM,27.0,-2.0,29,30.19,10.0,Variable,4.6,19.6,N/A,,Clear,0,2013-01-22 19:54:00
3:54 PM,28.0,-4.0,25,30.20,10.0,WNW,10.4,19.6,N/A,,Clear,300,2013-01-22 20:54:00
4:54 PM,26.1,-5.1,26,30.21,10.0,WNW,8.1,-,N/A,,Clear,290,2013-01-22 21:54:00
5:54 PM,24.1,-5.1,28,30.24,10.0,WNW,5.8,-,N/A,,Clear,300,2013-01-22 22:54:00
6:54 PM,23.0,-5.1,29,30.25,10.0,WNW,3.5,-,N/A,,Clear,300,2013-01-22 23:54:00
7:54 PM,19.9,-2.0,38,30.26,10.0,WNW,3.5,-,N/A,,Clear,300,2013-01-23 00:54:00
8:54 PM,21.0,-2.9,35,30.26,10.0,WNW,4.6,-,N/A,,Clear,300,2013-01-23 01:54:00
9:54 PM,21.0,-4.0,33,30.28,10.0,West,4.6,-,N/A,,Clear,280,2013-01-23 02:54:00
10:54 PM,19.9,-2.9,37,30.28,10.0,West,5.8,-,N/A,,Clear,260,2013-01-23 03:54:00
11:54 PM,19.0,-2.9,38,30.29,10.0,West,4.6,-,N/A,,Clear,260,2013-01-23 04:54:00